Hourly Weather Runan

Today, 15 April, Thursday

Time Temperature Precipitation Wind Pressure Humidity
00:00 +13°C° 0 mm 2 mps 757 mmHg 81%
01:00 +13°C° 0 mm 2 mps 756 mmHg 82%
02:00 +13°C° 0 mm 2 mps 756 mmHg 83%
03:00 +13°C° 0.2 mm 2 mps 756 mmHg 85%
04:00 +13°C° 0.2 mm 1 mps 756 mmHg 87%
05:00 +12°C° 0.2 mm 0 mps 756 mmHg 89%
06:00 +13°C° 0 mm 1 mps 756 mmHg 89%
07:00 +13°C° 0 mm 1 mps 756 mmHg 90%
08:00 +14°C° 0 mm 2 mps 756 mmHg 91%
09:00 +16°C° 0 mm 2 mps 756 mmHg 83%
10:00 +18°C° 0 mm 3 mps 756 mmHg 76%
11:00 +20°C° 0 mm 4 mps 756 mmHg 69%
12:00 +21°C° 0 mm 4 mps 755 mmHg 65%
13:00 +22°C° 0 mm 4 mps 755 mmHg 61%
14:00 +23°C° 0 mm 4 mps 754 mmHg 57%
15:00 +24°C° 0 mm 3 mps 754 mmHg 58%
16:00 +24°C° 0 mm 3 mps 754 mmHg 58%
17:00 +25°C° 0 mm 3 mps 754 mmHg 59%
18:00 +22°C° 0 mm 3 mps 754 mmHg 64%
19:00 +20°C° 0 mm 3 mps 755 mmHg 70%
20:00 +18°C° 0 mm 3 mps 755 mmHg 75%
21:00 +17°C° 0 mm 3 mps 755 mmHg 77%
22:00 +17°C° 0 mm 3 mps 756 mmHg 79%
23:00 +16°C° 0 mm 3 mps 756 mmHg 80%

Tomorrow, 16 April, Friday

Time Temperature Precipitation Wind Pressure Humidity
00:00 +16°C° 0 mm 3 mps 757 mmHg 69%
01:00 +14°C° 0 mm 3 mps 757 mmHg 58%
02:00 +13°C° 0 mm 3 mps 757 mmHg 47%
03:00 +13°C° 0 mm 3 mps 757 mmHg 40%
04:00 +12°C° 0 mm 3 mps 757 mmHg 33%
05:00 +12°C° 0 mm 2 mps 758 mmHg 25%
06:00 +12°C° 0 mm 2 mps 758 mmHg 32%
07:00 +13°C° 0 mm 2 mps 758 mmHg 38%
08:00 +13°C° 0 mm 2 mps 759 mmHg 45%
09:00 +15°C° 0 mm 2 mps 759 mmHg 42%
10:00 +16°C° 0 mm 2 mps 760 mmHg 39%
11:00 +17°C° 0 mm 2 mps 760 mmHg 37%
12:00 +18°C° 0 mm 2 mps 760 mmHg 36%
13:00 +19°C° 0 mm 3 mps 759 mmHg 36%
14:00 +21°C° 0 mm 3 mps 758 mmHg 35%
15:00 +21°C° 0 mm 3 mps 758 mmHg 40%
16:00 +21°C° 0 mm 3 mps 758 mmHg 44%
17:00 +21°C° 0 mm 3 mps 757 mmHg 49%
18:00 +19°C° 0 mm 3 mps 758 mmHg 50%
19:00 +17°C° 0 mm 3 mps 758 mmHg 51%
20:00 +14°C° 0 mm 3 mps 758 mmHg 52%
21:00 +14°C° 0 mm 3 mps 759 mmHg 53%
22:00 +13°C° 0 mm 3 mps 759 mmHg 54%
23:00 +13°C° 0 mm 3 mps 760 mmHg 54%

Day after tomorrow, 17 April, Saturday

Time Temperature Precipitation Wind Pressure Humidity
00:00 +12°C° 0 mm 4 mps 760 mmHg 49%
01:00 +12°C° 0 mm 4 mps 761 mmHg 44%
02:00 +12°C° 0 mm 5 mps 761 mmHg 39%
03:00 +11°C° 0 mm 4 mps 762 mmHg 35%
04:00 +8°C° 0 mm 4 mps 762 mmHg 32%
05:00 +8°C° 0 mm 3 mps 762 mmHg 29%
06:00 +9°C° 0 mm 2 mps 763 mmHg 32%
07:00 +10°C° 0 mm 2 mps 764 mmHg 35%
08:00 +12°C° 0 mm 1 mps 765 mmHg 38%
09:00 +14°C° 0 mm 2 mps 765 mmHg 35%
10:00 +16°C° 0 mm 2 mps 765 mmHg 32%
11:00 +18°C° 0 mm 3 mps 765 mmHg 29%
12:00 +19°C° 0 mm 3 mps 764 mmHg 28%
13:00 +20°C° 0 mm 3 mps 764 mmHg 27%
14:00 +21°C° 0 mm 2 mps 763 mmHg 26%
15:00 +21°C° 0 mm 2 mps 762 mmHg 28%
16:00 +21°C° 0 mm 2 mps 762 mmHg 30%
17:00 +22°C° 0 mm 1 mps 761 mmHg 32%
18:00 +19°C° 0 mm 1 mps 762 mmHg 34%
19:00 +16°C° 0 mm 2 mps 762 mmHg 37%
20:00 +14°C° 0 mm 2 mps 762 mmHg 40%
21:00 +13°C° 0 mm 2 mps 762 mmHg 43%
22:00 +11°C° 0 mm 3 mps 762 mmHg 47%
23:00 +10°C° 0 mm 3 mps 763 mmHg 51%

18 April, Sunday

Time Temperature Precipitation Wind Pressure Humidity
00:00 +10°C° 0 mm 3 mps 762 mmHg 53%
01:00 +9°C° 0 mm 3 mps 762 mmHg 54%
02:00 +9°C° 0 mm 3 mps 762 mmHg 56%
03:00 +9°C° 0 mm 3 mps 761 mmHg 57%
04:00 +9°C° 0 mm 3 mps 761 mmHg 57%
05:00 +8°C° 0 mm 3 mps 761 mmHg 58%
06:00 +10°C° 0 mm 3 mps 761 mmHg 56%
07:00 +12°C° 0 mm 3 mps 761 mmHg 54%
08:00 +13°C° 0 mm 3 mps 761 mmHg 52%
09:00 +17°C° 0 mm 3 mps 761 mmHg 47%
10:00 +19°C° 0 mm 3 mps 761 mmHg 41%
11:00 +21°C° 0 mm 4 mps 761 mmHg 35%
12:00 +22°C° 0 mm 4 mps 760 mmHg 34%
13:00 +22°C° 0 mm 4 mps 759 mmHg 32%
14:00 +23°C° 0 mm 4 mps 758 mmHg 31%
15:00 +23°C° 0 mm 4 mps 758 mmHg 35%
16:00 +22°C° 0 mm 4 mps 757 mmHg 39%
17:00 +22°C° 0 mm 4 mps 757 mmHg 44%
18:00 +20°C° 0 mm 4 mps 757 mmHg 48%
19:00 +17°C° 0 mm 4 mps 757 mmHg 52%
20:00 +14°C° 0 mm 3 mps 757 mmHg 57%
21:00 +13°C° 0 mm 3 mps 757 mmHg 58%
22:00 +12°C° 0 mm 3 mps 757 mmHg 59%
23:00 +12°C° 0 mm 3 mps 757 mmHg 61%

19 April, Monday

Time Temperature Precipitation Wind Pressure Humidity
00:00 +12°C° 0 mm 2 mps 757 mmHg 62%
01:00 +12°C° 0 mm 2 mps 756 mmHg 64%
02:00 +12°C° 0 mm 2 mps 756 mmHg 66%
03:00 +12°C° 0 mm 2 mps 756 mmHg 67%
04:00 +10°C° 0 mm 2 mps 756 mmHg 68%
05:00 +10°C° 0 mm 2 mps 756 mmHg 69%
06:00 +13°C° 0 mm 2 mps 756 mmHg 66%
07:00 +14°C° 0 mm 2 mps 756 mmHg 63%
08:00 +16°C° 0 mm 3 mps 757 mmHg 60%
09:00 +18°C° 0 mm 3 mps 757 mmHg 55%
10:00 +20°C° 0 mm 4 mps 756 mmHg 51%
11:00 +23°C° 0 mm 4 mps 756 mmHg 47%
12:00 +25°C° 0 mm 4 mps 756 mmHg 44%
13:00 +26°C° 0 mm 4 mps 755 mmHg 42%
14:00 +26°C° 0 mm 4 mps 754 mmHg 39%
15:00 +26°C° 0 mm 4 mps 754 mmHg 42%
16:00 +26°C° 0 mm 4 mps 754 mmHg 45%
17:00 +26°C° 0 mm 3 mps 753 mmHg 48%
18:00 +24°C° 0 mm 3 mps 753 mmHg 52%
19:00 +20°C° 0 mm 3 mps 754 mmHg 56%
20:00 +18°C° 0 mm 3 mps 754 mmHg 60%
21:00 +18°C° 0 mm 3 mps 754 mmHg 63%
22:00 +17°C° 0 mm 3 mps 754 mmHg 66%
23:00 +16°C° 0 mm 2 mps 755 mmHg 69%

20 April, Tuesday

Time Temperature Precipitation Wind Pressure Humidity
00:00 +16°C° 0 mm 2 mps 754 mmHg 68%
01:00 +16°C° 0 mm 2 mps 754 mmHg 68%
02:00 +16°C° 0 mm 2 mps 754 mmHg 68%
03:00 +16°C° 0 mm 2 mps 754 mmHg 67%
04:00 +16°C° 0 mm 2 mps 754 mmHg 67%
05:00 +16°C° 0 mm 2 mps 754 mmHg 66%
06:00 +16°C° 0 mm 2 mps 755 mmHg 68%
07:00 +17°C° 0 mm 2 mps 755 mmHg 69%
08:00 +17°C° 0 mm 2 mps 756 mmHg 70%
09:00 +17°C° 0.8 mm 2 mps 756 mmHg 75%
10:00 +17°C° 0.8 mm 2 mps 756 mmHg 81%
11:00 +16°C° 0.8 mm 2 mps 756 mmHg 86%
12:00 +16°C° 1.6 mm 2 mps 756 mmHg 87%
13:00 +16°C° 1.6 mm 3 mps 756 mmHg 88%
14:00 +16°C° 1.6 mm 3 mps 756 mmHg 88%
15:00 +16°C° 0.8 mm 3 mps 756 mmHg 90%
16:00 +16°C° 0.8 mm 2 mps 756 mmHg 92%
17:00 +15°C° 0.8 mm 2 mps 755 mmHg 94%
18:00 +15°C° 0.5 mm 2 mps 756 mmHg 95%
19:00 +15°C° 0.5 mm 2 mps 756 mmHg 96%
20:00 +15°C° 0.5 mm 1 mps 756 mmHg 97%
21:00 +15°C° 0.5 mm 1 mps 756 mmHg 97%
22:00 +16°C° 0.5 mm 1 mps 756 mmHg 97%
23:00 +16°C° 0.5 mm 2 mps 756 mmHg 98%
Show more